User: anonymous   Login
Location: Brede
(50.9167°N, 0.6000°E)
Time: 11:50:55
(UTC+00:00)
Language:

ISS - Orbit

View from above orbital plane
View from above orbital plane
View from above satellite
View from above satellite

Ground track
Ground track

The orbit data is extracted from the following two-line orbital elements,

1 25544U 98067A   20339.83283773  .00016717  00000-0  10270-3 0  9038
2 25544  51.6418 224.1133 0001925 115.0430 245.0920 15.49154811 18464
Epoch (UTC): 04 December 2020 19:59:17
Eccentricity: 0.0001925
inclination: 51.6418°
perigee height: 418 km
apogee height: 420 km
right ascension of ascending node: 224.1133°
argument of perigee: 115.0430°
revolutions per day: 15.49154811
mean anomaly at epoch: 245.0920°
orbit number at epoch: 1846

The dashed part of the orbit path shows where the satellite is in the earth's shadow,  

DLR